Seattle Boeing, WA
on Thursday, January 10, 2013

Thursday
Previous Day Next Day
Daily Summary
 ActualAverage (KSEA)Record (KSEA)
Temperature
Mean Temperature °F 42°F  
Max Temperature 39°F 47°F 59°F (1981)
Min Temperature 30°F 37°F 12°F (1949)
Degree Days
Heating Degree Days 30 23  
Month to date heating degree days 238  
Since 1 July heating degree days 2176  
Cooling Degree Days 0 0  
Month to date cooling degree days 0  
Year to date cooling degree days 0  
Moisture
Dew Point 32°F   
Average Humidity 82    
Maximum Humidity 93    
Minimum Humidity 73    
Precipitation
Precipitation 0.00 in 0.20 in 0.94 in (2006)
Month to date precipitation 1.89  
Year to date precipitation 1.89  
Snow
Snow 0.00 in in 3.00 in (2007)
Month to date snowfall  
Since 1 July snowfall  
Snow Depth in   
Wind
Wind Speed 3 mph   
Max Wind Speed 7 mph   
Max Gust Speed mph   
Visibility 9 miles   
Events Fog , Rain   

Key: T is trace of precipitation, MM is missing value
Source: NWS Daily Summary
Time(PST)TemperatureDew PointHumidity Pressure Visibility Wind DirectionWind SpeedGust SpeedPrecipitationEvents Conditions
12:53 AM 39.0°F 32.0°F 76% 29.95 in 10.0 miles South 5.8 mph - N/A   Overcast
1:53 AM 39.9°F 32.0°F 73% 29.97 in 10.0 miles Variable 3.5 mph - N/A   Overcast
2:53 AM 39.0°F 32.0°F 76% 29.98 in 10.0 miles Calm Calm - N/A   Overcast
3:53 AM 39.0°F 33.1°F 79% 29.99 in 10.0 miles South 3.5 mph - N/A   Overcast
4:53 AM 37.9°F 32.0°F 79% 29.99 in 10.0 miles Calm Calm - N/A   Overcast
5:53 AM 37.0°F 32.0°F 82% 30.01 in 10.0 miles Calm Calm - N/A   Overcast
6:44 AM 37.4°F 32.0°F 81% 30.03 in 10.0 miles Calm Calm - N/A   Overcast
6:53 AM 37.0°F 32.0°F 82% 30.03 in 10.0 miles SW 3.5 mph - N/A   Overcast
7:53 AM 37.0°F 32.0°F 82% 30.06 in 10.0 miles West 3.5 mph - N/A   Overcast
8:25 AM 35.6°F 32.0°F 87% 30.07 in 10.0 miles SW 3.5 mph - N/A   Overcast
8:53 AM 36.0°F 32.0°F 86% 30.08 in 10.0 miles Variable 3.5 mph - N/A   Overcast
9:53 AM 37.0°F 32.0°F 82% 30.09 in 10.0 miles SW 3.5 mph - N/A   Overcast
10:53 AM 37.9°F 33.1°F 83% 30.09 in 10.0 miles WSW 5.8 mph - 0.00 in   Overcast
11:24 AM 39.2°F 33.8°F 81% 30.08 in 10.0 miles Calm Calm - N/A   Overcast
11:53 AM 39.0°F 33.1°F 79% 30.07 in 10.0 miles Calm Calm - N/A   Overcast
12:53 PM 39.0°F 33.1°F 79% 30.06 in 10.0 miles South 4.6 mph - N/A   Overcast
1:53 PM 39.0°F 34.0°F 82% 30.08 in 7.0 miles WSW 4.6 mph - 0.00 in Rain Light Rain
2:50 PM 39.2°F 33.8°F 81% 30.08 in 10.0 miles WNW 6.9 mph - 0.00 in   Overcast
2:53 PM 39.9°F 33.1°F 77% 30.08 in 10.0 miles WNW 5.8 mph - 0.00 in   Overcast
3:53 PM 39.9°F 33.1°F 77% 30.09 in 10.0 miles Variable 5.8 mph - 0.00 in   Mostly Cloudy
4:53 PM 39.9°F 32.0°F 73% 30.09 in 10.0 miles West 4.6 mph - N/A   Overcast
5:53 PM 39.9°F 33.1°F 77% 30.09 in 10.0 miles Calm Calm - N/A   Overcast
6:43 PM 39.2°F 33.8°F 81% 30.09 in 10.0 miles Calm Calm - N/A   Overcast
6:53 PM 39.9°F 33.1°F 77% 30.09 in 10.0 miles Calm Calm - N/A   Overcast
7:06 PM 39.2°F 32.0°F 75% 30.09 in 10.0 miles Calm Calm - N/A   Overcast
7:53 PM 37.9°F 32.0°F 79% 30.09 in 10.0 miles Calm Calm - N/A   Scattered Clouds
8:53 PM 37.0°F 32.0°F 82% 30.10 in 10.0 miles Calm Calm - N/A   Partly Cloudy
9:53 PM 34.0°F 30.0°F 85% 30.11 in 10.0 miles Calm Calm - N/A   Partly Cloudy
10:53 PM 30.9°F 28.9°F 92% 30.12 in 5.0 miles Calm Calm - N/A Fog Shallow Fog
11:18 PM 32.0°F 30.2°F 93% 30.12 in 2.0 miles ESE 4.6 mph - N/A   Mostly Cloudy
11:20 PM 32.0°F 30.2°F 93% 30.12 in 0.5 miles ESE 4.6 mph - N/A Fog Mist
11:36 PM 32.0°F 30.2°F 93% 30.13 in 1.5 miles Calm Calm - N/A Fog Overcast
11:53 PM 33.1°F 30.9°F 92% 30.13 in 1.0 miles ESE 5.8 mph - N/A   Overcast
Moon Phase
Jan. 10 Jan. 11 Jan. 18 Jan. 26 Feb. 03
Sunrise:07:54 AM (PST) Moon Rise:06:39 AM (PST)1/10
Sunset:04:39 PM (PST) Moon Set:03:54 PM (PST)1/10

Copyright © 2014 The Weather Underground, Inc.